Location: Москва
(55.7518°N, 37.5952°E)
Time: 05:58:11
(UTC+03:00)

ISS - Pass Details

Date: 28 January 2021
Orbit: 417 x 422 km, 51.6° (Epoch: 18 May)

Event Time Altitude Azimuth Distance (km) Brightness Sun altitude
Rises 19:00:09 0° 261° (W) 2,374 1.9 -17.2°
Reaches altitude 10° 19:02:19 10° 255° (WSW) 1,510 0.3 -17.5°
Maximum altitude 19:05:31 41° 183° (S) 630 -2.9 -18.0°
Enters shadow 19:06:16 35° 149° (SSE) 708 -2.9 -18.1°
